Temperature
17 17 17 17 17 17 17 17 17 17 17 17 17 17 18 18 18 18 18 18 18 18 19 19 18 18 18 18 18 18 18 18 18 17 17 17 17 17 17 17 17 17 17
16 16 16 16 17 16 16 17 17 17 17 17 17 17 17 17 17 18 18 18 18 18 18 18 18 18 18 18 18 18 18 18 18 18 17 17 17 17 17 17 17 17 17
16 16 16 16 16 16 16 16 16 16 16 16 17 17 17 17 17 17 17 17 17 17 18 18 18 18 18 18 18 18 18 18 18 18 18 18 17 17 17 17 17 17 17
15 15 15 15 15 15 15 16 16 16 16 16 16 16 16 17 17 17 17 17 17 17 17 18 18 18 18 18 18 18 18 18 18 18 18 18 18 17 17 17 17 17 17
14 14 14 14 15 15 15 15 15 15 15 15 16 16 16 16 16 17 17 17 17 17 17 17 17 17 18 18 18 18 18 18 18 18 18 18 18 18 17 17 17 17 17
13 14 14 14 14 14 14 14 15 15 15 15 15 16 16 16 17 17 17 17 17 17 17 17 17 17 17 17 18 18 18 18 18 18 18 18 18 18 18 18 17 17 17
13 13 13 13 14 14 14 14 14 14 14 15 15 15 16 16 17 17 17 17 17 17 17 17 17 17 17 17 17 17 18 18 18 18 18 18 18 18 18 18 18 17 17
13 13 13 13 13 13 13 13 13 13 14 14 14 15 15 16 17 17 17 17 17 16 16 16 17 16 16 16 17 17 17 17 18 18 18 18 18 18 18 18 18 18 17
13 12 12 12 12 13 13 13 13 13 13 14 14 14 15 15 15 16 17 17 16 16 16 16 16 16 16 16 16 16 17 17 17 17 18 18 18 18 18 18 18 18 18
13 12 12 12 12 12 12 12 13 13 13 13 13 14 14 14 14 15 16 16 16 16 16 16 16 16 16 16 16 16 16 16 17 17 17 18 18 18 18 18 18 18 18
13 13 12 12 12 12 12 12 12 12 12 12 12 13 13 14 14 14 14 15 16 16 16 16 16 16 16 16 16 16 16 16 16 16 17 17 17 17 18 17 17 17 18
14 13 13 12 12 12 12 12 12 11 11 12 12 12 12 13 13 14 14 14 15 15 16 16 16 16 15 16 15 15 16 16 16 16 16 16 17 17 17 17 17 17 17
14 13 13 13 12 12 12 11 11 11 11 11 11 12 12 12 12 13 13 13 14 14 15 15 15 15 15 15 15 15 15 15 16 16 16 16 16 16 17 17 17 17 17
13 13 13 12 12 12 11 11 11 11 11 11 11 11 11 12 12 12 13 13 13 14 14 15 15 15 15 15 15 15 15 15 15 15 15 16 16 16 16 16 17 17 17
13 13 12 12 12 11 11 11 11 11 11 11 11 11 11 11 12 12 12 12 13 13 13 14 14 14 14 14 14 14 15 15 15 15 15 15 15 16 16 16 16 16 16
13 13 12 12 12 11 11 11 11 11 11 11 11 11 11 11 11 11 11 12 12 12 12 13 13 14 14 14 14 14 14 14 14 15 15 15 15 15 16 16 16 16 16
12 12 12 12 12 11 11 11 11 11 11 11 11 11 11 11 11 11 11 11 11 12 12 12 12 13 13 13 13 14 14 14 14 15 15 15 15 15 15 16 16 16 16
12 12 12 12 11 11 11 11 11 11 11 10 10 10 10 10 10 10 10 10 11 11 11 11 12 12 12 13 13 13 13 14 14 14 14 15 15 15 15 15 15 15 16
13 12 12 12 11 11 11 11 11 11 10 10 10 10 10 10 10 10 10 10 10 10 11 11 11 12 12 12 13 13 13 13 13 14 14 14 14 14 15 15 15 15 15
13 12 12 12 11 11 11 11 10 10 10 10 10 10 10 10 10 10 10 10 10 10 10 10 11 11 12 12 12 13 13 13 13 13 13 14 14 14 14 15 15 15 15
13 12 12 11 11 11 11 11 11 10 10 10 10 10 10 10 10 10 10 10 10 10 10 10 10 11 11 12 12 12 13 13 13 13 13 13 14 14 14 14 14 15 15
13 12 12 12 11 11 11 11 10 10 10 10 10 10 10 10 10 10 10 10 10 10 10 9 9 10 10 11 11 11 12 12 12 13 13 13 13 13 14 14 14 14 14
13 13 12 12 11 11 10 10 10 10 10 10 10 10 9 9 10 10 10 9 9 9 9 9 9 10 10 10 10 11 11 11 11 12 12 12 13 13 13 13 14 14 14
13 13 12 12 12 11 11 10 10 10 10 10 10 10 10 10 10 10 9 9 9 9 9 9 9 10 10 10 10 10 10 10 11 11 12 12 12 13 13 13 13 13 13
14 13 13 12 12 11 11 10 10 10 10 10 10 10 9 9 10 9 9 9 9 9 9 9 9 9 9 9 9 9 9 9 10 11 11 12 12 12 12 13 13 13 13
14 14 13 12 12 11 11 10 10 10 9 10 10 10 10 10 10 9 9 9 9 9 9 8 9 9 9 9 9 9 9 9 9 10 11 11 12 12 12 12 13 13 13
Wind_Speed
3 3 2 3 4 4 3 2 3 3 3 4 5 6 6 8 11 10 7 18 20 20 20 20 19 19 19 19 19 19 18 18 18 18 17 17 17 16 16 15 14 14 13
5 4 2 2 3 3 1 2 3 2 2 3 4 5 6 8 10 11 8 14 18 20 21 21 21 21 21 21 21 21 21 20 20 20 20 19 19 18 18 17 16 15 15
9 7 4 2 3 3 3 3 3 3 4 4 4 5 5 8 9 10 10 10 13 19 22 23 23 23 23 23 23 23 23 23 22 22 22 22 21 21 20 19 18 17 17
9 7 4 3 6 6 3 3 3 2 3 3 3 4 4 4 7 9 10 12 13 14 20 24 24 24 24 24 24 24 25 25 25 24 24 24 23 23 22 22 20 20 19
8 8 5 3 6 4 3 5 3 4 4 4 5 5 5 6 6 8 7 11 13 13 13 20 26 26 26 25 25 25 26 27 27 27 26 26 25 25 25 24 23 22 21
8 8 6 6 6 4 4 5 5 4 4 4 7 7 5 6 6 6 7 8 11 14 15 15 17 23 27 26 26 26 27 28 28 29 28 28 27 26 26 26 25 24 23
7 7 4 5 5 4 5 6 5 6 5 4 4 5 6 8 8 7 6 5 5 8 10 12 13 14 17 26 28 27 28 28 29 30 30 30 29 28 28 28 27 27 26
5 6 6 5 6 6 5 4 4 4 5 5 4 5 5 5 4 4 3 4 5 2 3 8 10 13 14 14 21 29 29 29 29 30 31 31 31 30 30 29 29 28 28
3 4 4 4 5 6 5 5 5 5 4 6 5 3 3 4 6 4 3 1 2 2 3 4 7 11 15 15 15 22 29 30 30 31 31 32 32 32 32 31 30 30 29
3 2 2 4 4 5 6 6 7 6 6 5 6 4 3 3 3 4 5 3 2 3 4 5 4 6 10 11 13 14 21 28 30 31 31 32 33 33 33 32 31 31 30
4 4 1 1 3 5 4 5 6 6 5 5 5 6 6 5 4 5 6 5 4 3 4 5 4 4 6 8 10 13 15 20 26 29 30 31 33 34 34 34 33 32 31
3 3 3 2 2 4 4 5 5 6 5 6 5 5 6 5 5 4 5 6 5 4 4 3 4 3 5 6 9 10 12 14 18 23 26 29 30 33 34 34 34 33 32
2 2 2 1 3 4 4 5 5 6 6 6 5 5 5 5 6 5 5 6 7 6 5 5 4 3 5 6 6 8 10 13 15 19 22 24 26 30 33 34 35 34 33
4 1 1 3 4 5 6 5 5 6 6 5 7 6 5 6 6 6 5 6 7 6 6 6 3 2 3 4 5 7 9 12 14 17 20 21 23 26 29 32 34 34 34
5 3 3 4 5 5 6 6 6 7 7 6 6 6 5 5 5 5 5 5 6 7 7 6 3 2 2 5 6 7 8 11 14 16 18 20 22 24 26 29 32 33 33
6 6 6 6 6 6 6 6 6 7 7 6 6 7 6 6 5 5 5 6 5 6 7 6 5 5 4 5 7 7 8 11 14 17 19 20 21 23 25 27 29 31 32
7 6 7 7 7 7 7 7 7 8 8 8 8 8 8 7 6 6 6 6 6 6 7 7 6 5 5 6 4 7 8 10 11 16 19 20 20 22 24 26 28 30 31
7 7 7 7 8 8 7 7 8 8 8 8 8 8 8 8 8 6 6 7 7 7 7 8 7 7 8 7 7 7 6 9 9 13 18 19 20 21 22 24 26 28 30
6 6 7 7 7 7 7 7 8 8 8 8 8 8 8 8 8 7 7 7 7 8 6 7 8 6 6 6 6 7 7 6 7 9 13 16 18 20 20 22 23 25 27
6 7 7 7 7 7 8 8 8 8 8 8 8 8 9 9 9 8 8 8 8 7 7 8 8 7 6 7 6 6 6 5 6 6 6 9 12 16 18 20 22 23 25
8 7 7 7 7 8 9 7 6 8 6 7 7 8 10 11 11 9 9 7 6 6 6 7 7 7 6 5 5 5 5 5 5 5 4 4 6 7 10 16 19 21 22
7 6 7 7 8 10 4 2 3 6 7 8 9 9 10 11 13 15 16 14 11 9 8 7 8 8 8 7 6 6 5 4 4 3 4 5 5 6 6 8 14 18 20
6 7 7 7 8 9 9 8 9 7 9 9 9 9 12 13 10 8 10 14 15 17 16 11 10 10 10 8 7 7 7 7 6 5 3 5 4 5 4 6 12 16 18
6 6 7 8 8 10 11 11 11 9 10 10 11 11 11 11 13 10 8 9 9 10 12 13 12 13 12 9 7 7 7 8 7 6 5 5 3 3 2 2 7 12 14
6 7 8 9 9 9 11 12 12 8 9 11 12 12 12 11 13 12 9 9 9 9 12 15 15 15 15 14 9 6 7 7 8 6 4 4 2 2 1 1 2 7 11
7 8 9 9 9 9 10 12 13 9 10 10 10 11 14 14 14 12 9 9 9 9 9 10 9 11 12 13 15 11 9 9 8 6 5 4 3 3 2 1 1 3 5
Wind_Direction
355 358 332 310 290 276 248 237 242 263 271 270 260 249 239 253 267 276 199 181 184 184 185 189 195 199 200 200 200 200 198 197 195 193 191 189 186 182 180 178 175 172 170
7 350 318 298 290 283 282 271 267 259 249 251 257 263 257 254 255 260 248 199 197 198 196 196 200 204 206 205 205 204 202 201 199 197 195 193 191 189 187 186 183 181 180
1 345 322 314 353 339 325 287 281 269 258 250 245 250 244 245 250 250 251 233 213 212 209 206 205 207 209 210 208 207 206 204 202 200 199 197 196 194 193 192 190 188 188
356 341 330 1 356 332 310 289 263 285 301 312 297 280 265 246 246 244 242 240 233 226 217 213 211 210 211 212 213 211 209 207 204 202 202 201 199 198 197 196 195 194 194
3 351 334 351 336 326 325 322 15 8 341 333 306 272 260 248 244 246 233 235 236 233 225 216 215 215 215 217 217 215 212 209 208 206 204 204 203 201 200 199 199 198 198
16 354 321 8 353 336 343 348 349 332 301 279 285 294 290 273 256 245 240 236 230 229 230 231 216 219 220 221 221 219 216 213 211 209 207 206 206 204 203 202 201 201 201
9 326 342 351 334 343 345 332 340 324 306 283 283 289 278 260 246 234 231 236 240 234 228 229 224 217 219 223 225 224 220 217 214 212 210 208 207 206 205 204 203 203 203
355 341 25 340 351 342 316 321 328 315 312 321 314 308 304 296 333 270 214 220 233 239 251 246 234 228 228 221 223 226 225 222 219 215 212 211 209 207 206 206 205 205 205
339 341 341 341 346 326 339 345 331 329 320 315 299 296 308 332 338 319 322 249 208 228 245 256 252 236 229 229 226 223 224 224 222 220 216 213 211 208 207 207 207 207 207
279 307 334 349 348 326 324 330 19 342 329 318 318 313 296 306 300 315 323 320 250 230 232 244 255 253 240 234 234 234 229 226 225 224 221 216 213 210 208 208 208 208 208
227 221 201 353 331 305 328 353 334 329 319 313 322 327 324 310 267 264 292 305 303 269 235 233 234 241 248 239 242 243 242 234 229 227 225 221 216 213 210 210 210 211 211
242 188 177 122 308 308 342 334 316 306 309 318 317 308 307 305 304 301 297 302 299 298 286 264 248 235 242 241 245 249 240 239 237 231 228 225 221 217 214 212 213 213 213
303 98 76 67 297 304 296 282 283 282 286 289 291 286 294 304 304 301 297 297 299 298 291 272 247 217 235 228 239 245 248 244 240 235 230 226 224 221 217 214 214 214 214
303 345 229 239 248 259 274 283 290 285 279 278 278 280 282 279 281 287 285 292 297 295 287 280 266 224 221 216 221 237 250 245 240 237 233 230 226 222 219 216 214 214 214
280 295 291 273 264 259 262 269 269 277 284 278 275 279 274 281 285 283 285 277 280 289 289 295 298 272 232 224 212 232 249 252 242 237 234 233 229 224 220 217 214 213 213
283 279 272 273 272 266 260 256 262 265 268 268 263 263 270 273 282 293 293 289 279 275 282 288 288 277 273 272 238 236 251 257 248 241 236 232 230 226 221 218 215 214 214
264 268 267 265 266 265 261 255 254 260 265 266 267 266 261 262 267 277 285 287 286 283 283 286 288 293 285 276 261 249 260 250 247 241 235 230 227 225 223 220 218 216 216
256 261 263 266 265 267 266 266 267 269 267 268 267 266 266 266 256 258 265 274 279 281 280 282 284 282 277 274 261 248 252 256 246 243 233 228 225 223 221 219 219 218 217
261 264 267 270 271 271 271 270 266 265 265 267 267 266 264 262 262 258 261 267 274 280 285 285 285 277 273 271 270 262 253 254 249 246 231 226 225 223 220 218 218 218 219
262 263 264 265 269 272 270 268 267 264 263 265 267 267 266 262 259 256 258 256 262 270 275 277 277 276 269 266 260 259 259 250 245 240 228 224 224 223 222 218 217 218 219
265 267 270 272 273 273 271 273 273 270 273 278 278 274 269 264 259 252 257 258 269 275 280 282 281 283 277 276 274 272 266 263 249 225 220 219 217 221 220 222 220 219 218
254 259 264 270 272 275 267 207 259 289 289 284 280 277 276 269 258 242 238 242 245 253 261 269 279 284 293 307 317 316 307 297 284 242 220 232 218 222 218 214 214 214 215
267 265 265 267 267 270 259 235 232 255 268 268 269 272 275 275 281 262 243 240 243 245 242 248 261 268 278 288 308 314 309 302 288 288 263 250 231 231 222 214 206 207 211
261 266 268 270 268 267 258 237 228 241 261 263 261 261 261 265 271 271 269 259 249 247 241 238 241 250 257 263 269 279 288 289 279 262 236 246 232 225 208 194 202 204 207
256 260 263 260 261 261 251 231 221 246 258 262 260 259 256 255 254 249 249 255 259 261 261 253 235 236 241 246 247 263 273 276 277 271 232 213 219 205 201 211 197 201 202
251 258 259 257 259 263 254 232 214 240 258 264 263 258 255 252 249 234 232 244 254 260 270 280 271 255 250 249 239 233 242 253 262 267 233 199 196 183 201 201 195 186 189
Height
1548 1548 1548 1548 1549 1549 1549 1550 1550 1551 1552 1553 1554 1556 1557 1558 1559 1562 1562 1562 1564 1566 1568 1570 1572 1574 1576 1579 1581 1583 1585 1588 1590 1592 1595 1597 1599 1601 1603 1605 1607 1608 1610
1546 1545 1546 1546 1546 1547 1547 1548 1548 1549 1550 1550 1551 1552 1553 1554 1555 1557 1558 1559 1560 1562 1564 1566 1568 1571 1573 1575 1578 1580 1583 1585 1588 1590 1592 1595 1597 1599 1601 1604 1606 1607 1609
1544 1544 1544 1544 1544 1545 1545 1546 1546 1547 1548 1548 1549 1549 1550 1550 1551 1552 1554 1555 1557 1558 1560 1561 1564 1566 1569 1571 1574 1576 1579 1582 1584 1587 1589 1592 1595 1597 1600 1602 1604 1606 1608
1542 1542 1542 1542 1542 1543 1543 1544 1545 1545 1545 1546 1546 1546 1547 1547 1547 1548 1549 1550 1552 1553 1555 1556 1559 1561 1564 1566 1569 1572 1575 1578 1580 1583 1586 1589 1591 1594 1597 1599 1602 1604 1606
1541 1540 1540 1541 1541 1541 1542 1543 1543 1542 1542 1542 1543 1543 1544 1544 1544 1544 1545 1546 1547 1549 1550 1552 1553 1556 1558 1560 1563 1567 1570 1573 1576 1579 1582 1585 1588 1590 1593 1596 1599 1601 1604
1540 1539 1539 1539 1539 1539 1540 1540 1540 1540 1540 1540 1541 1541 1540 1540 1540 1540 1541 1542 1543 1544 1546 1547 1549 1550 1552 1555 1557 1560 1564 1567 1570 1574 1577 1580 1583 1586 1589 1592 1595 1598 1601
1539 1538 1538 1537 1538 1538 1538 1538 1538 1538 1538 1539 1539 1538 1537 1536 1536 1536 1537 1538 1539 1540 1541 1542 1544 1545 1546 1548 1551 1554 1557 1560 1564 1567 1571 1575 1578 1581 1584 1588 1591 1594 1597
1538 1538 1536 1536 1536 1536 1536 1536 1536 1536 1536 1537 1537 1536 1535 1535 1533 1533 1533 1534 1535 1536 1537 1538 1539 1540 1541 1543 1544 1547 1550 1553 1557 1561 1564 1568 1572 1576 1579 1583 1586 1589 1593
1537 1536 1535 1534 1533 1534 1534 1534 1534 1534 1534 1535 1535 1536 1535 1533 1532 1532 1532 1532 1532 1533 1533 1534 1534 1535 1536 1537 1539 1541 1543 1546 1549 1553 1557 1561 1565 1569 1573 1577 1581 1584 1588
1536 1535 1534 1533 1532 1532 1532 1532 1532 1532 1532 1532 1533 1534 1534 1534 1533 1531 1530 1530 1530 1530 1530 1531 1531 1531 1531 1532 1533 1535 1537 1539 1542 1546 1550 1554 1558 1562 1566 1571 1575 1578 1582
1535 1534 1533 1532 1531 1531 1531 1530 1529 1529 1529 1530 1530 1530 1531 1531 1531 1531 1529 1529 1528 1528 1528 1527 1527 1527 1527 1527 1528 1529 1530 1532 1535 1538 1542 1546 1550 1555 1559 1563 1568 1572 1576
1534 1533 1532 1531 1530 1530 1529 1528 1527 1527 1527 1527 1527 1527 1528 1528 1529 1528 1527 1526 1526 1525 1525 1524 1524 1523 1523 1523 1523 1523 1524 1525 1527 1530 1534 1538 1542 1546 1551 1556 1560 1565 1569
1533 1532 1531 1530 1529 1528 1527 1526 1526 1525 1525 1525 1524 1524 1525 1525 1525 1525 1525 1524 1523 1522 1521 1521 1520 1519 1519 1518 1518 1518 1518 1519 1520 1522 1526 1530 1533 1538 1542 1547 1552 1557 1561
1531 1530 1529 1527 1526 1525 1525 1524 1523 1523 1523 1522 1522 1522 1521 1521 1521 1522 1522 1521 1520 1519 1518 1517 1517 1516 1515 1514 1513 1513 1513 1513 1513 1515 1518 1521 1525 1529 1533 1539 1544 1549 1554
1528 1528 1526 1525 1524 1523 1522 1521 1520 1520 1520 1519 1519 1519 1518 1518 1518 1518 1518 1518 1518 1515 1514 1514 1513 1512 1511 1510 1509 1509 1508 1508 1507 1508 1510 1513 1516 1520 1525 1530 1535 1540 1545
1524 1523 1523 1522 1521 1520 1519 1518 1517 1517 1516 1515 1515 1514 1514 1514 1514 1513 1513 1513 1513 1512 1510 1509 1509 1508 1507 1507 1506 1504 1503 1503 1502 1502 1503 1505 1508 1511 1516 1520 1525 1531 1536
1520 1520 1519 1518 1517 1516 1515 1514 1513 1512 1512 1511 1511 1510 1510 1509 1509 1509 1508 1508 1508 1508 1506 1504 1504 1504 1503 1502 1501 1500 1498 1498 1496 1496 1497 1498 1500 1503 1507 1511 1516 1521 1527
1517 1516 1515 1514 1513 1512 1511 1510 1509 1508 1507 1507 1506 1505 1505 1504 1504 1504 1503 1503 1503 1503 1502 1500 1499 1499 1498 1497 1496 1495 1493 1492 1491 1491 1491 1492 1493 1495 1498 1502 1507 1512 1517
1513 1512 1511 1510 1509 1508 1507 1505 1504 1503 1502 1501 1501 1500 1499 1499 1499 1498 1498 1498 1497 1497 1497 1495 1494 1494 1493 1492 1491 1490 1489 1488 1487 1486 1485 1486 1487 1489 1491 1494 1498 1502 1507
1509 1507 1506 1505 1504 1503 1502 1501 1499 1498 1497 1496 1495 1495 1494 1494 1493 1493 1493 1492 1492 1492 1491 1490 1489 1488 1488 1487 1486 1485 1484 1483 1482 1481 1481 1481 1481 1483 1484 1487 1490 1494 1498
1505 1504 1502 1501 1500 1498 1497 1496 1494 1494 1492 1491 1490 1489 1488 1488 1488 1488 1488 1487 1487 1486 1486 1485 1484 1483 1483 1482 1482 1480 1479 1478 1477 1477 1476 1476 1476 1477 1478 1480 1482 1485 1489
1500 1499 1497 1496 1494 1493 1492 1490 1489 1488 1486 1485 1483 1482 1482 1482 1482 1481 1481 1481 1481 1481 1480 1479 1479 1478 1477 1477 1476 1475 1475 1473 1472 1473 1472 1471 1472 1472 1472 1474 1476 1478 1481
1496 1494 1492 1490 1488 1487 1486 1484 1483 1481 1479 1478 1477 1476 1476 1476 1477 1476 1475 1475 1474 1474 1474 1474 1472 1472 1472 1472 1472 1470 1470 1469 1468 1468 1468 1466 1467 1467 1468 1468 1470 1472 1474
1491 1489 1487 1485 1483 1481 1480 1478 1477 1475 1473 1472 1471 1470 1469 1469 1470 1470 1469 1468 1468 1467 1467 1467 1466 1465 1466 1466 1466 1466 1465 1464 1463 1463 1464 1462 1462 1462 1463 1463 1465 1466 1468
1485 1483 1481 1479 1477 1475 1474 1472 1471 1469 1467 1466 1465 1464 1464 1463 1463 1463 1463 1462 1461 1461 1461 1460 1460 1459 1459 1459 1459 1460 1459 1460 1458 1458 1459 1458 1457 1458 1458 1459 1460 1461 1463
1479 1477 1475 1473 1472 1470 1468 1467 1466 1464 1462 1461 1460 1459 1459 1458 1457 1457 1456 1456 1455 1454 1454 1453 1453 1452 1452 1452 1452 1452 1453 1453 1453 1453 1453 1454 1454 1454 1454 1454 1455 1457 1458